Atlantic - Newfoundland: Past 24 Hour Conditions

 

St. Anthony Airport

05:30 PM NDT 30 August 2014
This table is a summary of hourly weather conditions for the past 24 hours.
Date / Time
(NDT)
Wind(knots) Conditions Visibility(km) Pressure(kPa) Air tempC) Relative humidity(%) Dew pointC)
30 August 2014
17:30 SW 23 gust 33 Sunny 16 101.0 17 63 10
16:30 SW 26 gust 35 Sunny 16 101.0 18 60 10
15:30 WSW 28 gust 35 Sunny 16 101.0 18 58 10
14:30 WSW 23 gust 35 Sunny 16 101.1 19 66 12
13:30 SW 28 gust 34 Sunny 16 101.1 18 70 12
12:30 WSW 23 gust 29 Sunny 16 101.2 18 67 12
11:30 WSW 19 gust 29 Sunny 16 101.2 17 63 10
10:30 WSW 19 gust 24 Sunny 16 101.3 17 68 11
9:30 SW 16 gust 25 Mainly Sunny 16 101.3 16 68 11
8:30 SW 15 Mainly Sunny 16 101.3 15 78 11
7:30 SW 13 Partly Cloudy 16 101.4 13 87 11
6:30 SW 11 gust 16 Partly Cloudy 16 101.4 12 90 10
5:30 SW 14 gust 21 Cloudy 16 101.4 12 89 10
4:30 WSW 15 Mostly Cloudy 16 101.4 11 88 9
3:30 SW 13 gust 18 Clear 16 101.4 11 87 9
2:30 WSW 16 Clear 16 101.4 10 87 8
1:30 WSW 13 gust 18 Clear 16 101.5 10 89 8
0:30 WSW 15 Clear 16 101.5 10 84 7
29 August 2014
23:30 WSW 12 Clear 16 101.5 9 88 7
22:30 WSW 7 Clear 16 101.5 7 91 6
21:30 WSW 6 Clear 16 101.5 8 86 6
20:30 WSW 4 Clear 16 101.5 8 84 6
19:30 WSW 6 Sunny 16 101.4 11 73 6
18:30 W 7 Sunny 16 101.4 12 66 6
17:30 NNW 4 Sunny 16 101.4 13 47 2
 
Map of Atlantic - Newfoundland marine weather areas Southwestern Grand Banks - 44138 Banquereau - 44139 Tail of the Bank - 44140 Nickerson Bank - 44251 Northeast Burgeo Bank - 44255 Blanc-Sablon Airport Cap Whittle Chevery Natashquan Airport Heath Point Miscou Island Grand Étang Ingonish Beach North Mountain St.Paul Island J.A. Douglas McCurdy Sydney Airport Charlottetown Airport East Point North Cape Argentia Bonavista Burgeo Cape Race Corner Brook Daniel's Harbour Englee Ferolle Point La Scie Port aux Basques Rocky Harbour Sagona Island St. Anthony Airport St. John's Int'l Airport St. Lawrence Stephenville Airport Twillingate Winterland Wreckhouse Cartwright Airport Mary's Harbour Grates Cove Pool's Island Marticot Island Long Pond Îles de la Madeleine Airport
Legend: buoyBuoy land stationLand Station